Regional Weather Roundup
Issued by NWS

Home | Current Version | Previous Version | Text Only | Print | Product List | Glossary Off
Versions: 1 2 3 4 5 6 7 8 9 10 11 12 13 14 15 16 17 18 19 20 21 22 23 24 25 26 27 28 29 30 31 32 33 34 35 36 37 38 39 40 41 42 43 44 45 46 47 48 49 50

038
ASUS45 KCYS 280810
RWRWY

WYOMING REGIONAL WEATHER ROUNDUP
NATIONAL WEATHER SERVICE CHEYENNE WY
200 AM MDT FRI APR 28 2017

NOTE:  "FAIR" INDICATES FEW OR NO CLOUDS BELOW 12,000 FEET
WITH NO SIGNIFICANT WEATHER AND/OR OBSTRUCTIONS TO VISIBILITY.

WYZ001-280900-
YELLOWSTONE NATIONAL PARK

CITY           SKY/WX    TMP DP  RH WIND       PRES   REMARKS
LK YELLOWSTONE   N/A     25  22  88 VRB3      29.77S
W YELLOWSTONE  NOT AVBL

$$
WYZ002>013-054>058-071-098>099-280900-
NORTHERN WYOMING

CITY           SKY/WX    TMP DP  RH WIND       PRES   REMARKS
JACKSON        CLOUDY    30  30 100 S3        29.77S
CODY           FLURRIES  34  32  92 N13G18    29.76F WCI  25
GREYBULL       CLOUDY    39  33  79 NW24      29.68F WCI  28
WORLAND        CLOUDY    38  35  89 N10       29.69S WCI  31
SHERIDAN       FLURRIES  33  32  96 NW8       29.77R WCI  26
BUFFALO        SNOW      34  31  88 NW15      29.73S VSB 1/2 WCI  24
GILLETTE       SNOW      33  33 100 N7        29.70S WCI  27
HULETT         CLOUDY    34  30  86 E13G22    29.73F WCI  25
NEWCASTLE        N/A    N/A N/A N/A NW5       29.68

$$
WYZ014>020-022>026-101>103-280900-
CENTRAL WYOMING

CITY           SKY/WX    TMP DP  RH WIND       PRES   REMARKS
BIG PINEY      CLOUDY    30  19  63 NW10      29.74F WCI  21
PINEDALE       CLOUDY    30  25  80 NW12      29.72F WCI  21
DUBOIS         CLOUDY    30  21  69 W18       29.68F WCI  18
LANDER         FLURRIES  32  32 100 W5        29.68F WCI  27
RIVERTON       LGT SNOW  32  32 100 W5        29.69F FOG     WCI  27
CASPER         LGT SNOW  32  31  96 N12       29.65S FOG     WCI  23
DOUGLAS        LGT SNOW  33  31  92 NE12      29.63S FOG     WCI  24

$$
WYZ021-027>030-104>119-280900-
SOUTHERN WYOMING

CITY           SKY/WX    TMP DP  RH WIND       PRES   REMARKS
EVANSTON       FAIR      22  19  89 W10       29.81F WCI  11
KEMMERER         N/A     27  21  80 W16       29.78F WCI  14
ROCK SPRINGS   FAIR      30  20  66 W22       29.74F WCI  17
DIXON            N/A     31  23  71 SW6       29.76F WCI  26
RAWLINS        SNOW      30  27  88 W22G29    29.66F VSB 1/2 WCI  17
SARATOGA       PTSUNNY   32  21  64 W17       29.68F WCI  21
LARAMIE        FAIR      28  20  71 SW16      29.62F WCI  16
CHEYENNE       FAIR      32  25  75 W7        29.61F WCI  26
TORRINGTON     CLOUDY    41  39  93 E5        29.59F
PINE BLUFFS    FAIR      32  32 100 SW3       29.62S

$$




USA.gov is the U.S. government's official web portal to all federal, state and local government web resources and services.